Location: Coupvray
(48.8929°N, 2.7967°E)
Time: 03:48:56
(UTC+00:00)

Cosmos 1666 - Pass Details

Date: 14 July 2020
Orbit: 497 x 521 km, 82.5° (Epoch: 06 August)

Event Time Altitude Azimuth Distance (km) Brightness Sun altitude
Exits shadow 02:47:58 14° 223° (SW) 1,510 4.4 -9.6°
Maximum altitude 02:50:53 35° 286° (WNW) 835 3.5 -9.3°
Drops below altitude 10° 02:54:22 10° 353° (N) 1,723 6.0 -8.9°
Sets 02:56:38 0° 3° (N) 2,609 7.2 -8.7°
